{"data":{"norad_id":63117,"epoch":"2026-05-25T02:48:22.468608Z","epoch_age_seconds":68903,"freshness":"FRESH","line1":"1 63117U 25039P   26145.11692672  .00196011  00000+0  26981-2 0  9994","line2":"2 63117  42.9888 287.3923 0024179 333.7450  26.2185 15.55508433 69919","mean_motion":15.55508433,"eccentricity":0.0024179,"inclination_deg":42.9888,"raan_deg":287.3923,"arg_perigee_deg":333.745,"mean_anomaly_deg":26.2185,"bstar":0.0026981,"rev_number":6991,"period_min":92.574232929279,"perigee_km":384.28459024401,"apogee_km":417.06556970033,"semimajor_km":6778.8120799722,"source":"CELESTRAK","updated_at":"2026-05-25T13:38:19.911097Z"}}